Time,TemperatureF,DewpointF,PressureIn,WindDirection,WindDirectionDegrees,WindSpeedMPH,WindSpeedGustMPH,Humidity,HourlyPrecipIn,Conditions,Clouds,dailyrainin,SoftwareType,DateUTC
2013-12-09 00:40:00,36.0,-99.9,-100.00,SE,140,1.0,2.0,-999,-99.99,,,-99.99,,2013-12-09 06:40:00,
2013-12-09 01:22:00,36.0,-99.9,-100.00,SE,140,1.0,2.0,-999,-99.99,,,-99.99,,2013-12-09 07:22:00,
2013-12-09 01:32:00,36.0,-99.9,-100.00,SE,140,1.0,2.0,-999,-99.99,,,-99.99,,2013-12-09 07:32:00,
2013-12-09 01:40:00,39.0,-99.9,-100.00,SSW,196,0.0,6.0,-999,-99.99,,,-99.99,,2013-12-09 07:40:00,
2013-12-09 02:00:00,38.0,-99.9,-100.00,SSE,148,1.0,3.0,-999,-99.99,,,-99.99,,2013-12-09 08:00:00,
2013-12-09 02:22:00,39.0,-99.9,-100.00,SSW,196,0.0,6.0,-999,-99.99,,,-99.99,,2013-12-09 08:22:00,
2013-12-09 02:33:00,39.0,-99.9,-100.00,SSW,196,0.0,6.0,-999,-99.99,,,-99.99,,2013-12-09 08:33:00,
2013-12-09 02:52:00,38.0,-99.9,-100.00,SSE,148,1.0,3.0,-999,-99.99,,,-99.99,,2013-12-09 08:52:00,
2013-12-09 04:40:00,39.0,-99.9,-100.00,SSE,165,0.0,6.0,-999,-99.99,,,-99.99,,2013-12-09 10:40:00,
2013-12-09 04:53:00,36.0,-99.9,-100.00,SSW,196,2.0,5.0,-999,-99.99,,,-99.99,,2013-12-09 10:53:00,
2013-12-09 05:02:00,36.0,-99.9,-100.00,SSW,196,2.0,5.0,-999,-99.99,,,-99.99,,2013-12-09 11:02:00,
2013-12-09 05:22:00,39.0,-99.9,-100.00,SSE,165,0.0,6.0,-999,-99.99,,,-99.99,,2013-12-09 11:22:00,
2013-12-09 05:33:00,39.0,-99.9,-100.00,SSE,165,0.0,6.0,-999,-99.99,,,-99.99,,2013-12-09 11:33:00,
2013-12-09 06:12:00,37.0,-99.9,-100.00,SSW,211,3.0,5.0,-999,-99.99,,,-99.99,,2013-12-09 12:12:00,
2013-12-09 06:23:00,37.0,-99.9,-100.00,SSW,211,3.0,5.0,-999,-99.99,,,-99.99,,2013-12-09 12:23:00,
2013-12-09 07:00:00,39.0,-99.9,-100.00,South,183,2.0,8.0,-999,-99.99,,,-99.99,,2013-12-09 13:00:00,
2013-12-09 07:52:00,39.0,-99.9,-100.00,South,183,2.0,8.0,-999,-99.99,,,-99.99,,2013-12-09 13:52:00,
2013-12-09 09:54:00,45.0,-99.9,-100.00,East,85,2.0,4.0,-999,-99.99,,,-99.99,,2013-12-09 15:54:00,
2013-12-09 10:03:00,45.0,-99.9,-100.00,East,85,2.0,4.0,-999,-99.99,,,-99.99,,2013-12-09 16:03:00,
2013-12-09 10:53:00,52.0,-99.9,-100.00,WSW,256,2.0,8.0,-999,-99.99,,,-99.99,,2013-12-09 16:53:00,
2013-12-09 11:03:00,52.0,-99.9,-100.00,WSW,256,2.0,8.0,-999,-99.99,,,-99.99,,2013-12-09 17:03:00,
2013-12-09 11:23:00,53.0,-99.9,-100.00,NE,36,7.0,10.0,-999,-99.99,,,-99.99,,2013-12-09 17:23:00,
2013-12-09 11:33:00,53.0,-99.9,-100.00,NE,36,7.0,10.0,-999,-99.99,,,-99.99,,2013-12-09 17:33:00,
2013-12-09 11:40:00,57.0,-99.9,-100.00,ENE,60,5.0,12.0,-999,-99.99,,,-99.99,,2013-12-09 17:40:00,
2013-12-09 11:43:00,53.0,-99.9,-100.00,NE,36,7.0,10.0,-999,-99.99,,,-99.99,,2013-12-09 17:43:00,
2013-12-09 12:22:00,57.0,-99.9,-100.00,ENE,60,5.0,12.0,-999,-99.99,,,-99.99,,2013-12-09 18:22:00,
2013-12-09 12:32:00,57.0,-99.9,-100.00,ENE,60,5.0,12.0,-999,-99.99,,,-99.99,,2013-12-09 18:32:00,
2013-12-09 13:20:00,58.0,-99.9,-100.00,East,84,14.0,14.0,-999,-99.99,,,-99.99,,2013-12-09 19:20:00,
2013-12-09 13:53:00,58.0,-99.9,-100.00,NNE,16,6.0,11.0,-999,-99.99,,,-99.99,,2013-12-09 19:53:00,
2013-12-09 14:11:00,58.0,-99.9,-100.00,East,84,14.0,14.0,-999,-99.99,,,-99.99,,2013-12-09 20:11:00,
2013-12-09 15:20:00,54.0,-99.9,-100.00,NE,48,7.0,11.0,-999,-99.99,,,-99.99,,2013-12-09 21:20:00,
2013-12-09 17:30:00,45.0,-99.9,-100.00,West,279,3.0,9.0,-999,-99.99,,,-99.99,,2013-12-09 23:30:00,
2013-12-09 18:22:00,45.0,-99.9,-100.00,West,279,3.0,9.0,-999,-99.99,,,-99.99,,2013-12-10 00:22:00,
2013-12-09 18:53:00,42.0,-99.9,-100.00,NNW,327,1.0,8.0,-999,-99.99,,,-99.99,,2013-12-10 00:53:00,
2013-12-09 19:02:00,42.0,-99.9,-100.00,NNW,327,1.0,8.0,-999,-99.99,,,-99.99,,2013-12-10 01:02:00,
2013-12-09 20:12:00,34.0,-99.9,-100.00,East,81,10.0,15.0,-999,-99.99,,,-99.99,,2013-12-10 02:12:00,
2013-12-09 20:22:00,34.0,-99.9,-100.00,East,81,10.0,15.0,-999,-99.99,,,-99.99,,2013-12-10 02:22:00,
2013-12-09 20:50:00,28.0,-99.9,-100.00,NE,55,1.0,12.0,-999,-99.99,,,-99.99,,2013-12-10 02:50:00,
2013-12-09 21:43:00,28.0,-99.9,-100.00,NE,55,1.0,12.0,-999,-99.99,,,-99.99,,2013-12-10 03:43:00,
2013-12-09 22:50:00,27.0,-99.9,-100.00,ENE,69,4.0,7.0,-999,-99.99,,,-99.99,,2013-12-10 04:50:00,
2013-12-09 23:43:00,27.0,-99.9,-100.00,ENE,69,4.0,7.0,-999,-99.99,,,-99.99,,2013-12-10 05:43:00,